Location: Wald
(31.7579°N, 86.6655°W)
Time: 00:22:44
(UTC+00:00)

ATLAS 3B R/B - Visible Passes

Search period start: 24 October 2020 00:00
Search period end: 03 November 2020 00:00
Orbit: 1016 x 1179 km, 63.8° (Epoch: 04 October)

Date Brightness Start Highest point End Pass type
(mag) Time Alt. Az. Time Alt. Az. Time Alt. Az.
24 Oct 4.6 09:18:47 10° SSE 09:23:50 24° ESE 09:28:53 10° ENE visible
24 Oct 2.8 11:07:45 10° SW 11:14:04 49° WNW 11:20:27 10° NNE visible
25 Oct 5.2 08:34:53 10° SE 08:37:00 12° ESE 08:39:05 10° E visible
25 Oct 2.5 10:20:10 10° SSW 10:26:45 86° WNW 10:33:23 10° NNE visible
26 Oct 3.2 09:36:11 27° S 09:39:37 54° ESE 09:45:59 10° NE visible
26 Oct 3.6 11:25:20 10° WSW 11:30:33 24° NW 11:35:50 10° N visible
27 Oct 4.1 08:52:06 29° ESE 08:52:37 29° ESE 08:58:06 10° NE visible
27 Oct 3.0 10:39:28 23° WSW 10:43:00 41° NW 10:49:12 10° NNE visible
28 Oct 5.1 08:07:40 13° E 08:07:40 13° E 08:09:12 10° ENE visible
28 Oct 2.4 09:55:00 67° W 09:55:38 72° WNW 10:02:14 10° NNE visible
29 Oct 3.4 09:10:17 46° NE 09:10:17 46° NE 09:14:57 10° NE visible
29 Oct 3.8 10:57:37 18° WNW 10:59:34 21° NW 11:04:24 10° N visible
30 Oct 4.8 08:25:22 19° ENE 08:25:22 19° ENE 08:27:15 10° NE visible
30 Oct 3.3 10:12:41 34° NW 10:12:41 34° NW 10:17:55 10° NNE visible
31 Oct 3.7 09:27:36 32° N 09:27:36 32° N 09:31:02 10° NNE visible
31 Oct 4.4 11:15:39 10° NW 11:16:33 10° NW 11:17:29 10° NNW visible
01 Nov 4.7 08:42:24 18° NNE 08:42:24 18° NNE 08:43:52 10° NNE visible
01 Nov 4.1 10:29:43 17° NNW 10:29:43 17° NNW 10:32:54 10° N visible
02 Nov 4.3 09:44:24 19° N 09:44:24 19° N 09:46:35 10° N visible
